This is the latest recevied weather packets stored in our database for station/object N6SPP. If no packets are shown the sender has not sent any weather packets the latest 10 day(s).
| Time | Temp. | Humidity | Pressure | Rain* | Wind** | Luminosity | Snow |
|---|---|---|---|---|---|---|---|
| 1777578821 | 25.56° C | 42% | 1015.8 hPa | 0 mm | - | 733 W/m² | - |
| 1777578517 | 26.11° C | 43% | 1015.9 hPa | 0 mm | - | 774 W/m² | - |
| 1777578212 | 25.56° C | 44% | 1015.7 hPa | 0 mm | - | 774 W/m² | - |
| 1777577907 | 25° C | 45% | 1015.8 hPa | 0 mm | - | 774 W/m² | - |
| 1777577603 | 25.56° C | 44% | 1015.8 hPa | 0 mm | - | 772 W/m² | - |
| 1777577295 | 25° C | 47% | 1016 hPa | 0 mm | - | 770 W/m² | - |
| 1777576991 | 25° C | 46% | 1016 hPa | 0 mm | - | 768 W/m² | - |
| 1777576688 | 24.44° C | 47% | 1016 hPa | 0 mm | - | 766 W/m² | - |
| 1777576387 | 25° C | 46% | 1016 hPa | 0 mm | - | 761 W/m² | - |
| 1777576084 | 23.89° C | 47% | 1016 hPa | 0 mm | - | 758 W/m² | - |
| 1777575780 | 24.44° C | 48% | 1016.3 hPa | 0 mm | - | 755 W/m² | - |
| 1777575476 | 24.44° C | 48% | 1016.5 hPa | 0 mm | - | 750 W/m² | - |
| 1777575172 | 24.44° C | 46% | 1016.4 hPa | 0 mm | - | 745 W/m² | - |
| 1777574868 | 23.89° C | 47% | 1016.3 hPa | 0 mm | - | 738 W/m² | - |
| 1777574566 | 23.89° C | 49% | 1016.4 hPa | 0 mm | - | 737 W/m² | - |
| 1777574262 | 23.89° C | 46% | 1016.4 hPa | 0 mm | - | 728 W/m² | - |
| 1777573957 | 24.44° C | 45% | 1016.5 hPa | 0 mm | - | 722 W/m² | - |
| 1777573652 | 24.44° C | 46% | 1016.5 hPa | 0 mm | - | 714 W/m² | - |
| 1777573349 | 24.44° C | 46% | 1016.5 hPa | 0 mm | - | 702 W/m² | - |
| 1777573044 | 23.89° C | 43% | 1016.7 hPa | 0 mm | - | 695 W/m² | - |
| 1777572741 | 24.44° C | 42% | 1016.4 hPa | 0 mm | - | 689 W/m² | - |
| 1777572441 | 23.33° C | 44% | 1016.3 hPa | 0 mm | - | 681 W/m² | - |
| 1777572138 | 23.89° C | 42% | 1016.7 hPa | 0 mm | - | 671 W/m² | - |
| 1777571833 | 23.33° C | 43% | 1016.6 hPa | 0 mm | - | 661 W/m² | - |
| 1777571529 | 23.33° C | 44% | 1016.6 hPa | 0 mm | - | 655 W/m² | - |
* Rain latest hour (hover to see other rain measurements)
** Current wind speed in m/s (hover to see current wind gust speed)